Alturas, CA

4:15 AM PDT on September 19, 2019 (GMT -0700)
Alturas Municipal

Weather History for KAAT - August, 2019

Change the Weather History Date:

Sunday, August 25, 2019

  Actual Average Record
Temperature  
Mean Temperature 70 °F 63 °F  
Max Temperature 90 °F 84 °F 98 °F (2010)
Min Temperature 49 °F 41 °F 28 °F (1963)
Degree Days  
Heating Degree Days 0 3  
Month to date heating degree days 23 45  
Since 1 June heating degree days 192 266  
Since 1 July heating degree days 49 86  
Cooling Degree Days 4 1  
Month to date cooling degree days 66 50  
Year to date cooling degree days 177 145  
Since 1 June cooling degree days 177 145  
Growing Degree Days 20 (Base 50)    
Moisture  
Dew Point 42 °F    
Average Humidity 40    
Maximum Humidity 77    
Minimum Humidity 17    
Precipitation  
Precipitation 0.00 in 0.02 in 0.21 in (1977)
Month to date precipitation 0.27 0.28  
Year to date precipitation 10.48 9.06  
Sea Level Pressure  
Sea Level Pressure 30.02 in    
Wind  
Wind Speed 4 mph ()    
Max Wind Speed 17 mph    
Max Gust Speed 24 mph    
Visibility 9.7 miles    
Events      
T = Trace of Precipitation, MM = Missing Value Source: Averaged Metar Reports

Daily Weather History Graph

Daily Weather History Graph

Search for Another Location

Airport or City:

Astronomy

Aug. 25, 2019 Rise Set
Actual Time 6:21 AM PDT 7:46 PM PDT
Civil Twilight 5:52 AM PDT 8:15 PM PDT
Nautical Twilight 5:17 AM PDT 8:50 PM PDT
Astronomical Twilight 4:40 AM PDT 9:27 PM PDT
Moon 12:57 AM PDT (8/25) 4:15 PM PDT (8/25)
Length of Visible Light 14h 23m
Length of Day
13h 25m
Waning Crescent, 28% of the Moon is Illuminated
Aug 25
Waning Crescent
Aug 30
New
Sep 5
First Quarter
Sep 13
Full
Sep 21
Last Quarter

Hourly Weather History & Observations

Time (PDT) Temp. Dew Point Humidity Pressure Visibility Wind Dir Wind Speed Gust Speed Precip Events Conditions
12:55 AM 66.0 °F 48.0 °F 52% 29.98 in 10.0 mi Calm Calm - N/A   Clear
1:55 AM 62.1 °F 48.0 °F 60% 29.98 in 10.0 mi South 3.5 mph - N/A   Clear
2:55 AM 59.0 °F 48.0 °F 67% 29.99 in 10.0 mi East 4.6 mph - N/A   Clear
3:55 AM 55.0 °F 46.9 °F 74% 30.00 in 10.0 mi Calm Calm - N/A   Clear
4:55 AM 53.1 °F 46.0 °F 77% 30.01 in 10.0 mi Calm Calm - N/A   Clear
5:55 AM 52.0 °F 45.0 °F 77% 30.03 in 10.0 mi Calm Calm - N/A   Clear
6:55 AM 53.1 °F 46.0 °F 77% 30.05 in 10.0 mi Calm Calm - N/A   Clear
7:55 AM 62.1 °F 46.9 °F 58% 30.06 in 10.0 mi Calm Calm - N/A   Clear
8:26 AM 64.9 °F 46.0 °F 50% 30.19 in 2.0 mi SE 3.5 mph - N/A   Haze
8:36 AM 66.9 °F 46.0 °F 47% 30.19 in 10.0 mi Calm Calm - N/A   Clear
8:55 AM 69.1 °F 46.0 °F 44% 30.05 in 10.0 mi Calm Calm - N/A   Clear
9:55 AM 75.0 °F 48.0 °F 38% 30.04 in 10.0 mi WSW 8.1 mph - N/A   Clear
10:55 AM 79.0 °F 46.9 °F 32% 30.04 in 10.0 mi West 11.5 mph 18.4 mph N/A   Clear
11:55 AM 82.9 °F 42.1 °F 24% 30.02 in 10.0 mi WNW 13.8 mph 21.9 mph N/A   Clear
12:55 PM 84.9 °F 35.1 °F 17% 30.01 in 10.0 mi West 12.7 mph 19.6 mph N/A   Clear
1:55 PM 86.0 °F 39.0 °F 19% 29.99 in 10.0 mi WSW 8.1 mph 19.6 mph N/A   Clear
2:55 PM 88.0 °F 37.9 °F 17% 29.98 in 10.0 mi WSW 6.9 mph - N/A   Clear
3:55 PM 89.1 °F 42.1 °F 19% 29.97 in 10.0 mi WSW 15.0 mph 19.6 mph N/A   Clear
4:55 PM 88.0 °F 39.9 °F 18% 29.96 in 10.0 mi West 6.9 mph 19.6 mph N/A   Clear
5:55 PM 89.1 °F 39.9 °F 18% 29.96 in 10.0 mi WSW 8.1 mph - N/A   Clear
6:55 PM 84.0 °F 36.0 °F 18% 29.97 in 10.0 mi NNW 9.2 mph - N/A   Clear
7:55 PM 79.0 °F 33.1 °F 19% 29.98 in 10.0 mi NW 9.2 mph - N/A   Clear
8:55 PM 75.0 °F 34.0 °F 22% 30.00 in 10.0 mi WNW 9.2 mph - N/A   Clear
9:55 PM 72.0 °F 36.0 °F 27% 30.02 in 10.0 mi WSW 3.5 mph - N/A   Clear
10:55 PM 68.0 °F 37.9 °F 33% 30.04 in 10.0 mi SE 5.8 mph - N/A   Clear
11:55 PM 63.0 °F 37.9 °F 40% 30.06 in 10.0 mi Calm Calm - N/A   Clear